TimeEDT,TemperatureF,Dew PointF,Humidity,Sea Level PressureIn,VisibilityMPH,Wind Direction,Wind SpeedMPH,Gust SpeedMPH,PrecipitationIn,Events,Conditions,WindDirDegrees,DateUTC
12:53 AM,43.0,41.0,93,30.11,10.0,Calm,Calm,-,N/A,,Clear,0,2013-04-06 04:53:00
1:53 AM,42.1,41.0,96,30.13,10.0,Calm,Calm,-,N/A,,Clear,0,2013-04-06 05:53:00
2:53 AM,42.1,39.9,92,30.13,10.0,Calm,Calm,-,N/A,,Clear,0,2013-04-06 06:53:00
3:53 AM,42.1,39.0,89,30.12,10.0,Calm,Calm,-,N/A,,Clear,0,2013-04-06 07:53:00
4:53 AM,39.0,37.9,96,30.12,10.0,Calm,Calm,-,N/A,,Clear,0,2013-04-06 08:53:00
5:53 AM,39.0,37.0,93,30.12,10.0,Calm,Calm,-,N/A,,Clear,0,2013-04-06 09:53:00
6:53 AM,39.0,37.0,93,30.15,10.0,Calm,Calm,-,N/A,,Clear,0,2013-04-06 10:53:00
7:53 AM,39.0,37.0,93,30.17,10.0,Calm,Calm,-,N/A,,Clear,0,2013-04-06 11:53:00
8:53 AM,48.0,46.0,93,30.18,8.0,Calm,Calm,-,N/A,,Clear,0,2013-04-06 12:53:00
9:53 AM,55.9,50.0,80,30.19,10.0,Calm,Calm,-,N/A,,Clear,0,2013-04-06 13:53:00
10:53 AM,62.1,48.0,60,30.19,10.0,Calm,Calm,-,N/A,,Clear,0,2013-04-06 14:53:00
11:25 AM,64.4,48.2,56,30.20,10.0,NE,3.5,-,N/A,,Clear,50,2013-04-06 15:25:00
11:53 AM,66.9,46.9,49,30.20,10.0,Variable,5.8,-,N/A,,Clear,0,2013-04-06 15:53:00
12:53 PM,70.0,46.0,42,30.20,10.0,East,9.2,-,N/A,,Clear,100,2013-04-06 16:53:00
1:53 PM,71.1,44.1,38,30.19,10.0,Variable,5.8,-,N/A,,Clear,0,2013-04-06 17:53:00
2:53 PM,72.0,42.1,34,30.17,10.0,Variable,5.8,-,N/A,,Clear,0,2013-04-06 18:53:00
3:53 PM,73.9,39.9,29,30.14,10.0,SE,6.9,-,N/A,,Clear,130,2013-04-06 19:53:00
4:53 PM,75.0,41.0,29,30.13,10.0,ESE,8.1,-,N/A,,Clear,120,2013-04-06 20:53:00
5:53 PM,73.9,39.0,28,30.13,10.0,ESE,8.1,-,N/A,,Clear,110,2013-04-06 21:53:00
6:53 PM,72.0,41.0,33,30.14,10.0,East,6.9,-,N/A,,Clear,90,2013-04-06 22:53:00
7:53 PM,68.0,42.1,39,30.14,10.0,ESE,3.5,-,N/A,,Clear,120,2013-04-06 23:53:00
8:53 PM,62.1,46.0,56,30.15,10.0,Calm,Calm,-,N/A,,Clear,0,2013-04-07 00:53:00
9:53 PM,57.9,46.0,65,30.16,10.0,Calm,Calm,-,N/A,,Clear,0,2013-04-07 01:53:00
10:53 PM,55.0,48.0,77,30.16,10.0,Calm,Calm,-,N/A,,Clear,0,2013-04-07 02:53:00
11:53 PM,57.0,45.0,64,30.17,10.0,ESE,5.8,-,N/A,,Clear,110,2013-04-07 03:53:00